This demonstration page uses our WeatherBlox Daily Observations layout. Learn more.

Hourly Observations for February 16, 2015

Temp ( °F °C ) Dew Point ( °F °C ) Humidity (%) Winds ( mph kmh ) Pressure ( in mb ) Visibility ( mi km ) Precip ( " mm )
12:15 am 00:15 Clear 21 -6.2 12 -11.3 68 68 SW 6 9 30.3 1026 10 16.0934 0 0
12:35 am 00:35 Clear 20 -6.4 11 -11.5 67 67 SW 5 7 30.3 1026 10 16.0934 0 0
12:55 am 00:55 Clear 20 -6.6 11 -11.5 68 68 SW 3 6 30.3 1026 10 16.0934 0 0
1:15 am 01:15 Clear 20 -6.5 11 -11.6 67 67 SW 3 6 30.3 1026 10 16.0934 0 0
1:35 am 01:35 Clear 20 -6.6 11 -11.5 68 68 SW 5 7 30.3 1026 10 16.0934 0 0
1:55 am 01:55 Clear 20 -6.7 11 -11.7 68 68 W 5 7 30.3 1026 10 16.0934 0 0
2:15 am 02:15 Clear 20 -6.9 11 -11.5 70 70 W 6 9 30.3 1026 10 16.0934 0 0
2:35 am 02:35 Clear 20 -6.4 11 -11.5 67 67 WSW 5 7 30.3 1026 10 16.0934 0 0
2:55 am 02:55 Clear 20 -6.4 11 -11.5 67 67 WSW 5 7 30.27 1025 10 16.0934 0 0
3:15 am 03:15 Clear 21 -6.2 12 -11.2 68 68 SW 3 6 30.27 1025 10 16.0934 0 0
3:35 am 03:35 Clear 20 -6.5 12 -11 71 71 Calm 30.27 1025 10 16.0934 0 0
3:55 am 03:55 Clear 20 -6.6 12 -11 71 71 W 5 7 30.27 1025 10 16.0934 0 0
4:15 am 04:15 Clear 20 -6.5 12 -11 71 71 WSW 3 6 30.27 1025 10 16.0934 0 0
4:35 am 04:35 Clear 20 -6.5 12 -10.9 71 71 Calm 30.27 1025 10 16.0934 0 0
4:55 am 04:55 Clear 20 -6.5 13 -10.7 72 72 Calm 30.27 1025 10 16.0934 0 0
5:15 am 05:15 Clear 20 -6.9 13 -10.7 75 75 Calm 30.27 1025 10 16.0934 0 0
5:35 am 05:35 Clear 19 -7 13 -10.5 76 76 Calm 30.27 1025 10 16.0934 0 0
5:55 am 05:55 Clear 21 -6.3 14 -10.2 74 74 W 3 6 30.27 1025 10 16.0934 0 0
6:15 am 06:15 Clear 20 -6.6 14 -9.9 78 78 Calm 30.27 1025 10 16.0934 0 0
6:35 am 06:35 Clear 20 -6.6 15 -9.3 81 81 WNW 5 7 30.27 1025 10 16.0934 0 0
6:55 am 06:55 Partly Cloudy 21 -6.2 17 -8.5 84 84 NNW 6 9 30.27 1025 10 16.0934 0 0
7:15 am 07:15 Mostly Cloudy 20 -6.4 17 -8.4 86 86 WNW 3 6 30.27 1025 10 16.0934 0 0
7:35 am 07:35 Cloudy 21 -6.1 18 -7.7 89 89 W 5 7 30.3 1026 10 16.0934 0 0
7:55 am 07:55 Cloudy 22 -5.7 19 -7.3 89 89 W 6 9 30.27 1025 10 16.0934 0 0
8:15 am 08:15 Cloudy 22 -5.3 19 -7 88 88 NW 5 7 30.27 1025 10 16.0934 0 0
8:35 am 08:35 Cloudy 23 -4.9 20 -6.6 88 88 NW 6 9 30.27 1025 10 16.0934 0 0
8:55 am 08:55 Cloudy 26 -3.4 22 -5.4 86 86 NW 6 9 30.27 1025 10 16.0934 0 0
9:15 am 09:15 Cloudy 28 -2.2 23 -4.8 83 83 WNW 7 11 30.24 1024 10 16.0934 0 0
9:35 am 09:35 Cloudy 29 -1.4 24 -4.6 79 79 NW 6 9 30.24 1024 10 16.0934 0 0
9:55 am 09:55 Cloudy 31 -0.7 24 -4.5 76 76 NW 6 9 30.24 1024 10 16.0934 0 0
10:15 am 10:15 Cloudy 32 -0.1 24 -4.5 73 73 N 5 7 30.24 1024 10 16.0934 0 0
10:35 am 10:35 Cloudy 33 0.3 24 -4.5 70 70 N 6 9 30.24 1024 10 16.0934 0 0
10:55 am 10:55 Cloudy 34 1 24 -4.7 66 66 NNW 8 13 30.21 1023 10 16.0934 0 0
11:15 am 11:15 Cloudy 35 1.5 22 -5.4 61 61 NNW 7 11 30.21 1023 10 16.0934 0 0
11:35 am 11:35 Cloudy 35 1.6 23 -5.2 61 61 N 5 7 30.21 1023 10 16.0934 0 0
11:55 am 11:55 Cloudy 37 2.7 21 -6.1 53 53 NW 5 7 30.21 1023 10 16.0934 0 0
12:15 pm 12:15 Cloudy 38 3.6 22 -5.6 51 51 N 5 7 30.18 1022 10 16.0934 0 0
12:35 pm 12:35 Partly Cloudy 39 3.7 23 -5.1 53 53 N 6 9 30.15 1021 10 16.0934 0 0
12:55 pm 12:55 Partly Cloudy 38 3.4 22 -5.4 53 53 NNW 7 11 30.18 1022 10 16.0934 0 0
1:15 pm 13:15 Mostly Cloudy 41 4.8 23 -5 49 49 NNW 8 13 30.15 1021 10 16.0934 0 0
1:35 pm 13:35 Mostly Cloudy 40 4.6 23 -5 50 50 N 10 17 30.15 1021 10 16.0934 0 0
1:55 pm 13:55 Cloudy 40 4.6 23 -5.1 50 50 NW 8 13 30.12 1020 10 16.0934 0 0
2:15 pm 14:15 Cloudy 41 5.1 23 -5.1 48 48 NNW 9 15 30.12 1020 10 16.0934 0 0
2:35 pm 14:35 Mostly Cloudy 40 4.6 23 -5.1 50 50 NW 6 9 30.12 1020 10 16.0934 0 0
2:55 pm 14:55 Mostly Cloudy 41 5.2 23 -5 48 48 NNW 5 7 30.12 1020 10 16.0934 0 0
3:15 pm 15:15 Mostly Cloudy 42 5.5 23 -5 47 47 NW 10 17 30.12 1020 10 16.0934 0 0
3:35 pm 15:35 Cloudy 42 5.7 23 -5 46 46 NNW 12 19 30.12 1020 10 16.0934 0 0
3:55 pm 15:55 Cloudy 41 5 23 -4.9 49 49 N 10 17 30.12 1020 10 16.0934 0 0
4:15 pm 16:15 Cloudy 42 5.3 25 -3.9 52 52 WNW 12 19 30.12 1020 10 16.0934 0 0
4:35 pm 16:35 Cloudy with Light Rain 38 3.5 27 -2.6 65 65 NNW 10 17 30.12 1020 5 8.0467 0 0
5:15 pm 17:15 Cloudy 40 4.3 25 -3.8 56 56 N 13 20 30.12 1020 10 16.0934 0 0
5:35 pm 17:35 Cloudy 39 4 23 -5.1 52 52 N 10 17 30.12 1020 10 16.0934 0 0
5:55 pm 17:55 Mostly Cloudy 38 3.1 22 -5.4 54 54 N 12 19 30.15 1021 10 16.0934 0 0
6:15 pm 18:15 Partly Cloudy 34 0.9 21 -6.1 60 60 N 8 13 30.15 1021 10 16.0934 0 0
6:35 pm 18:35 Clear 31 -0.6 20 -6.6 64 64 NNE 6 9 30.18 1022 10 16.0934 0 0
6:55 pm 18:55 Clear 31 -0.5 20 -6.6 64 64 NNE 5 7 30.21 1023 10 16.0934 0 0
7:15 pm 19:15 Clear 29 -1.4 20 -6.9 67 67 Calm 30.21 1023 10 16.0934 0 0
7:55 pm 19:55 Mostly Cloudy 27 -2.6 20 -6.5 75 75 WNW 7 11 30.24 1024 10 16.0934 0 0
8:15 pm 20:15 Cloudy 32 0 26 -3.3 79 79 WNW 8 13 30.21 1023 10 16.0934 0 0
8:35 pm 20:35 Cloudy 31 -0.5 26 -3.3 82 82 WNW 6 9 30.21 1023 10 16.0934 0 0
8:55 pm 20:55 Cloudy 31 -0.5 28 -2.4 87 87 WNW 6 9 30.21 1023 10 16.0934 0 0
9:15 pm 21:15 Mostly Cloudy 30 -1.1 27 -3 87 87 W 6 9 30.21 1023 10 16.0934 0 0
9:35 pm 21:35 Partly Cloudy 28 -2.1 26 -3.6 90 90 W 6 9 30.21 1023 10 16.0934 0 0
9:55 pm 21:55 Partly Cloudy 29 -1.8 27 -2.9 92 92 WNW 7 11 30.21 1023 10 16.0934 0 0
10:15 pm 22:15 Partly Cloudy 29 -1.8 27 -3 92 92 W 7 11 30.21 1023 10 16.0934 0 0
10:35 pm 22:35 Clear 28 -2 27 -2.8 94 94 W 9 15 30.21 1023 10 16.0934 0 0
10:55 pm 22:55 Partly Cloudy 28 -2.2 26 -3.1 94 94 W 8 13 30.21 1023 10 16.0934 0 0
11:15 pm 23:15 Partly Cloudy 27 -2.6 26 -3.6 93 93 WNW 8 13 30.24 1024 10 16.0934 0 0
11:35 pm 23:35 Mostly Cloudy 27 -2.7 25 -3.8 92 92 WNW 10 17 30.24 1024 10 16.0934 0 0
11:55 pm 23:55 Cloudy 28 -2 26 -3.5 90 90 WNW 12 19 30.21 1023 10 16.0934 0 0

Powered by AerisWeather